When you browse on this site, cookies collect data to enhance your experience and personalize the content and advertising you see.
Visit our Privacy Policy to learn more. By continuing to use the site, you agree to this use of cookies and data.
  • In Romania
  • List of Countries
  • For 7 days
  • Water Temperature
  • Satellite Maps
  • Weather Map
  • Weather Widgets
  • user-avatar
    Login

    Hourly Weather Modliszow

    Today, 18 February, Monday

    Time Temperature Precipitation Wind Pressure Humidity
    00:00 +3°C° 0 mm 2 mps 726 mmHg 63%
    01:00 +3°C° 0 mm 2 mps 726 mmHg 63%
    02:00 +2°C° 0 mm 2 mps 726 mmHg 64%
    03:00 +2°C° 0 mm 2 mps 726 mmHg 64%
    04:00 +2°C° 0 mm 2 mps 725 mmHg 65%
    05:00 +2°C° 0 mm 2 mps 725 mmHg 66%
    06:00 +2°C° 0 mm 2 mps 725 mmHg 66%
    07:00 +2°C° 0 mm 2 mps 725 mmHg 66%
    08:00 +3°C° 0 mm 2 mps 725 mmHg 66%
    09:00 +5°C° 0 mm 2 mps 725 mmHg 66%
    10:00 +6°C° 0 mm 2 mps 726 mmHg 65%
    11:00 +7°C° 0 mm 2 mps 725 mmHg 64%
    12:00 +8°C° 0 mm 2 mps 725 mmHg 62%
    13:00 +9°C° 0 mm 2 mps 725 mmHg 61%
    14:00 +9°C° 0 mm 2 mps 725 mmHg 63%
    15:00 +8°C° 0 mm 2 mps 724 mmHg 66%
    16:00 +7°C° 0 mm 2 mps 724 mmHg 68%
    17:00 +6°C° 0 mm 2 mps 724 mmHg 69%
    18:00 +5°C° 0 mm 2 mps 723 mmHg 71%
    19:00 +2°C° 0 mm 3 mps 723 mmHg 72%
    20:00 +2°C° 0 mm 3 mps 723 mmHg 73%
    21:00 +2°C° 0 mm 3 mps 723 mmHg 75%
    22:00 +1°C° 0 mm 3 mps 723 mmHg 76%
    23:00 +1°C° 0 mm 3 mps 723 mmHg 76%

    Tomorrow, 19 February, Tuesday

    Time Temperature Precipitation Wind Pressure Humidity
    00:00 +1°C° 0 mm 3 mps 723 mmHg 76%
    01:00 0°C° 0 mm 4 mps 722 mmHg 77%
    02:00 0°C° 0 mm 4 mps 722 mmHg 77%
    03:00 0°C° 0 mm 4 mps 722 mmHg 77%
    04:00 0°C° 0 mm 4 mps 722 mmHg 77%
    05:00 -1°C° 0 mm 4 mps 721 mmHg 77%
    06:00 -1°C° 0 mm 4 mps 721 mmHg 78%
    07:00 0°C° 0 mm 3 mps 721 mmHg 79%
    08:00 0°C° 0 mm 4 mps 721 mmHg 76%
    09:00 +3°C° 0 mm 4 mps 721 mmHg 74%
    10:00 +4°C° 0 mm 4 mps 721 mmHg 71%
    11:00 +5°C° 0 mm 4 mps 721 mmHg 69%
    12:00 +6°C° 0 mm 4 mps 721 mmHg 67%
    13:00 +6°C° 0 mm 4 mps 721 mmHg 64%
    14:00 +6°C° 0 mm 4 mps 721 mmHg 66%
    15:00 +6°C° 0 mm 4 mps 721 mmHg 68%
    16:00 +5°C° 0 mm 4 mps 720 mmHg 70%
    17:00 +5°C° 0.1 mm 4 mps 721 mmHg 74%
    18:00 +4°C° 0.1 mm 3 mps 721 mmHg 78%
    19:00 +3°C° 0.1 mm 3 mps 721 mmHg 82%
    20:00 +3°C° 0.6 mm 3 mps 721 mmHg 85%
    21:00 +3°C° 0.6 mm 3 mps 722 mmHg 88%
    22:00 +3°C° 0.6 mm 3 mps 722 mmHg 91%
    23:00 +2°C° 0 mm 3 mps 722 mmHg 90%

    Day after tomorrow, 20 February, Wednesday

    Time Temperature Precipitation Wind Pressure Humidity
    00:00 +1°C° 0 mm 3 mps 722 mmHg 90%
    01:00 +1°C° 0 mm 3 mps 722 mmHg 89%
    02:00 +1°C° 0 mm 3 mps 723 mmHg 90%
    03:00 0°C° 0 mm 3 mps 723 mmHg 90%
    04:00 0°C° 0 mm 3 mps 723 mmHg 91%
    05:00 0°C° 0 mm 3 mps 723 mmHg 91%
    06:00 0°C° 0 mm 3 mps 723 mmHg 91%
    07:00 0°C° 0 mm 3 mps 724 mmHg 91%
    08:00 0°C° 0 mm 4 mps 724 mmHg 86%
    09:00 +1°C° 0 mm 4 mps 724 mmHg 81%
    10:00 +2°C° 0 mm 5 mps 725 mmHg 76%
    11:00 +3°C° 0 mm 5 mps 725 mmHg 73%
    12:00 +5°C° 0 mm 5 mps 725 mmHg 69%
    13:00 +5°C° 0 mm 5 mps 725 mmHg 66%
    14:00 +5°C° 0 mm 5 mps 725 mmHg 68%
    15:00 +5°C° 0 mm 4 mps 725 mmHg 69%
    16:00 +5°C° 0 mm 4 mps 725 mmHg 71%
    17:00 +4°C° 0 mm 3 mps 725 mmHg 75%
    18:00 +3°C° 0 mm 3 mps 725 mmHg 79%
    19:00 +3°C° 0 mm 2 mps 725 mmHg 83%
    20:00 +3°C° 0 mm 2 mps 726 mmHg 83%
    21:00 +3°C° 0 mm 2 mps 726 mmHg 84%
    22:00 +2°C° 0 mm 2 mps 726 mmHg 85%
    23:00 +2°C° 0 mm 2 mps 726 mmHg 85%

    21 February, Thursday

    Time Temperature Precipitation Wind Pressure Humidity
    00:00 +1°C° 0 mm 3 mps 726 mmHg 84%
    01:00 +1°C° 0 mm 3 mps 726 mmHg 84%
    02:00 +1°C° 0 mm 3 mps 726 mmHg 85%
    03:00 +1°C° 0 mm 3 mps 726 mmHg 86%
    04:00 +1°C° 0 mm 3 mps 726 mmHg 87%
    05:00 +1°C° 0.2 mm 3 mps 726 mmHg 87%
    06:00 +1°C° 0.2 mm 3 mps 726 mmHg 87%
    07:00 +1°C° 0.2 mm 3 mps 726 mmHg 87%
    08:00 +2°C° 0.1 mm 3 mps 726 mmHg 84%
    09:00 +3°C° 0.1 mm 4 mps 726 mmHg 82%
    10:00 +4°C° 0.1 mm 4 mps 726 mmHg 79%
    11:00 +4°C° 0.1 mm 4 mps 726 mmHg 78%
    12:00 +5°C° 0.1 mm 5 mps 726 mmHg 78%
    13:00 +6°C° 0.1 mm 5 mps 726 mmHg 77%
    14:00 +5°C° 0.7 mm 4 mps 726 mmHg 80%
    15:00 +5°C° 0.7 mm 4 mps 726 mmHg 84%
    16:00 +4°C° 0.7 mm 3 mps 726 mmHg 87%
    17:00 +4°C° 0.5 mm 3 mps 726 mmHg 89%
    18:00 +4°C° 0.5 mm 2 mps 727 mmHg 91%
    19:00 +4°C° 0.5 mm 2 mps 727 mmHg 93%
    20:00 +5°C° 0.1 mm 1 mps 727 mmHg 94%
    21:00 +5°C° 0.1 mm 1 mps 728 mmHg 94%
    22:00 +5°C° 0.1 mm 1 mps 728 mmHg 94%
    23:00 +5°C° 0 mm 1 mps 728 mmHg 95%

    22 February, Friday

    Time Temperature Precipitation Wind Pressure Humidity
    00:00 +5°C° 0 mm 1 mps 729 mmHg 95%
    01:00 +4°C° 0 mm 2 mps 729 mmHg 96%
    02:00 +4°C° 0 mm 2 mps 730 mmHg 96%
    03:00 +4°C° 0 mm 2 mps 730 mmHg 97%
    04:00 +3°C° 0 mm 3 mps 731 mmHg 97%
    05:00 +3°C° 0 mm 3 mps 731 mmHg 96%
    06:00 +3°C° 0 mm 3 mps 732 mmHg 95%
    07:00 +3°C° 0 mm 3 mps 732 mmHg 94%
    08:00 +3°C° 0 mm 3 mps 733 mmHg 92%
    09:00 +3°C° 0 mm 3 mps 733 mmHg 90%
    10:00 +3°C° 0 mm 3 mps 734 mmHg 87%
    11:00 +3°C° 0 mm 3 mps 734 mmHg 87%
    12:00 +3°C° 0 mm 3 mps 734 mmHg 86%
    13:00 +3°C° 0 mm 3 mps 735 mmHg 86%
    14:00 +3°C° 0 mm 3 mps 735 mmHg 86%
    15:00 +3°C° 0 mm 3 mps 735 mmHg 86%
    16:00 +3°C° 0 mm 3 mps 735 mmHg 86%
    17:00 +4°C° 0 mm 2 mps 736 mmHg 89%
    18:00 +3°C° 0 mm 2 mps 736 mmHg 91%
    19:00 +4°C° 0 mm 1 mps 736 mmHg 94%
    20:00 +4°C° 0 mm 1 mps 737 mmHg 95%
    21:00 +3°C° 0 mm 1 mps 737 mmHg 96%
    22:00 +3°C° 0 mm 1 mps 737 mmHg 96%
    23:00 +2°C° 0 mm 0 mps 738 mmHg 96%

    23 February, Saturday

    Time Temperature Precipitation Wind Pressure Humidity
    00:00 +2°C° 0 mm 0 mps 738 mmHg 96%
    01:00 +2°C° 0 mm 0 mps 738 mmHg 96%
    02:00 +1°C° 0 mm 0 mps 738 mmHg 96%
    03:00 +1°C° 0 mm 0 mps 738 mmHg 96%
    04:00 +1°C° 0 mm 0 mps 738 mmHg 96%
    05:00 +1°C° 0 mm 0 mps 738 mmHg 95%
    06:00 0°C° 0 mm 0 mps 738 mmHg 94%
    07:00 0°C° 0 mm 0 mps 738 mmHg 94%
    08:00 +2°C° 0 mm 0 mps 738 mmHg 88%
    09:00 +3°C° 0 mm 0 mps 738 mmHg 82%
    10:00 +5°C° 0 mm 0 mps 739 mmHg 76%
    11:00 +6°C° 0 mm 0 mps 739 mmHg 70%
    12:00 +8°C° 0 mm 1 mps 738 mmHg 65%
    13:00 +9°C° 0 mm 1 mps 738 mmHg 60%
    14:00 +9°C° 0 mm 1 mps 738 mmHg 61%
    15:00 +9°C° 0 mm 1 mps 738 mmHg 62%
    16:00 +9°C° 0 mm 1 mps 737 mmHg 64%
    17:00 +8°C° 0 mm 1 mps 737 mmHg 69%
    18:00 +7°C° 0 mm 1 mps 737 mmHg 74%
    19:00 +5°C° 0 mm 1 mps 737 mmHg 80%
    20:00 +5°C° 0 mm 1 mps 737 mmHg 80%
    21:00 +5°C° 0 mm 1 mps 737 mmHg 81%
    22:00 +4°C° 0 mm 1 mps 737 mmHg 81%
    23:00 +4°C° 0 mm 1 mps 736 mmHg 80%
    Show more